Terug naar catalogus

FENGYUN 1C DEB

ActiefSSO
NORAD 30650·DEBRIS·🇨🇳 China

Gelanceerd May 10, 1999 vanaf Taiyuan Satellite Launch Center

Loading…

Volgende Passages (komende 24 uur)

TLE

VersSource: Space-Track

Epoch: Sep 14, 2026, 02:43 UTC

1 30650U 99025APH 26257.11381115  .00001647  00000-0  85040-3 0  9990
2 30650  99.1871 310.8425 0072634 135.9107 254.2592 14.15145153  1855

Volg FENGYUN 1C DEB in realtime met AllMySat

Download on the App Store